Regional Weather Roundup
Issued by NWS

Home | Current Version | Previous Version | Text Only | Print | Product List | Glossary Off
Versions: 1 2 3 4 5 6 7 8 9 10 11 12 13 14 15 16 17 18 19 20 21 22 23 24 25 26 27 28 29 30 31 32 33 34 35 36 37 38 39 40 41 42 43 44 45 46 47 48 49 50

000
ASUS43 KLMK 221410
RWRKY
KENTUCKY REGIONAL WEATHER ROUNDUP
NATIONAL WEATHER SERVICE LOUISVILLE KY
900 AM EST MON DEC 22 2014

NOTE "FAIR" INDICATES FEW OR NO CLOUDS BELOW 12,000 FEET
WITH NO SIGNIFICANT WEATHER AND/OR OBSTRUCTIONS TO VISIBILITY.

KYZ001>023-026-027-061>063-070>075-221500-
WESTERN AND SOUTH CENTRAL KENTUCKY

CITY           SKY/WX    TMP DP  RH WIND       PRES   REMARKS
PADUCAH        CLOUDY    48  44  86 S10       29.84S
HENDERSON      CLOUDY    43  36  75 SE6       29.89S
OWENSBORO      CLOUDY    44  38  79 SE7       29.92S
HOPKINSVILLE   CLOUDY    46  45  93 SE6       29.90R
BOWLING GREEN  MOCLDY    42  37  82 CALM      29.94F
GLASGOW        MOSUNNY   45  40  84 E5        29.96S
$$

KYZ024-025-028>034-038-045-046-053-221500-
NORTH CENTRAL KENTUCKY

CITY           SKY/WX    TMP DP  RH WIND       PRES   REMARKS
LOUISVILLE/SDF CLOUDY    41  32  70 E3        29.96F
LOUISVILLE/LOU CLOUDY    42  33  70 CALM      29.97F
FORT KNOX      CLOUDY    38  32  78 E5        29.94F WCI  34
$$

KYZ035>037-039>044-047>052-055>060-089>105-221500-
NORTHEAST KENTUCKY

CITY           SKY/WX    TMP DP  RH WIND       PRES   REMARKS
LEXINGTON      MOSUNNY   37  30  75 SE8       29.99F WCI  31
COVINGTON      CLOUDY    37  27  67 SE8       30.00S WCI  31
FRANKFORT      PTCLDY    31  28  89 CALM      29.98F
$$

KYZ054-064>069-076>088-106>120-221500-
SOUTHEAST KENTUCKY

CITY           SKY/WX    TMP DP  RH WIND       PRES   REMARKS
JACKSON        CLOUDY    41  33  73 CALM      30.02S
LONDON         CLOUDY    46  37  71 SE3       30.00F
SOMERSET       CLOUDY    39  34  81 CALM      30.00F
MIDDLESBORO    CLOUDY    47  38  70 CALM      30.04R
MONTICELLO     CLOUDY    47  40  76 CALM      30.01F
$$



USA.gov is the U.S. government's official web portal to all federal, state and local government web resources and services.